Hourly Weather Roundup
Issued by NWS Central Illinois

Home | Current Version | Previous Version | Text Only | Print | Product List | Glossary On
Versions: 1 2 3 4 5 6 7 8 9 10 11 12 13 14 15 16 17 18 19 20 21 22 23 24 25 26 27 28 29 30 31 32 33 34 35 36 37 38 39 40 41 42 43 44 45 46 47 48 49 50
000
NZUS43 KILX 250710
HWRILX

Area Weather Roundup
National Weather Service Lincoln IL
200 AM CDT TUE JUL 25 2017

NOTE:  "FAIR" indicates few or no clouds below 12,000 feet, with
       no sigificant weather and/or obstructions to visibility.


CITY           SKY/WX    TMP DP  RH WIND       PRES   REMARKS
Bloomington    FAIR      60  58  92 E5        30.14R
Champaign      FAIR      64  60  87 NE9       30.12R
Danville       FAIR      61  61  99 NE5       30.10R
Decatur        FAIR      63  61  93 E3        30.11R
Effingham      FAIR      67  66  95 CALM      30.09S
Flora          FAIR      71  67  88 NE5       30.07S
Galesburg      FAIR      64  61  91 E3        30.14R
Jacksonville   FAIR      64  63  94 CALM      30.10S
Lacon          FAIR      61  60  95 E3        30.13R
Lawrenceville  FAIR      70  67  90 NE6       30.07S
Litchfield     FAIR      68  64  88 E7        30.08S
$$


CITY           SKY/WX    TMP DP  RH WIND       PRES   REMARKS
Lincoln        FAIR      63  62  97 NE5       30.12R
Macomb         FAIR      61  60  98 NE3       30.13S FOG
Mattoon        FAIR      65  64  97 NE5       30.09S
Mt Carmel AP   FAIR      70  66  89 NE5       30.06S
Olney-Noble AP FAIR      69  66  93 NE5       30.07S
Paris AP       FAIR      63  62  99 NE3       30.11S
Peoria         FAIR      65  61  87 E5        30.13R
Pontiac        FAIR      58  58  99 E3        30.14S FOG
Rantoul        FAIR      65  63  93 NE6       30.12S
Robinson       FAIR      66  65  95 NE5       30.09S
Springfield    FAIR      67  64  90 NE5       30.11R
Taylorville    FAIR      66  64  91 E6        30.10R
$$

...REGIONAL REPORTS...


CITY           SKY/WX    TMP DP  RH WIND       PRES   REMARKS
Chicago O`Hare FAIR      66  59  78 NE3       30.13S
Kankakee       FAIR      61  61 100 CALM      30.14S
Moline         FAIR      63  59  87 E5        30.12R
Mount Sterling MOCLDY    66  64  93 E6        30.10S
Mount Vernon   FAIR      71  68  90 NE7       30.06S
Pittsfield     FAIR      68  66  94 CALM      30.11R
Quincy         MOCLDY    69  65  86 E8        30.09S
Rockford       FAIR      62  58  86 CALM      30.15S
$$


CITY           SKY/WX    TMP DP  RH WIND       PRES   REMARKS
Burlington     FAIR      67  64  90 E8        30.10S
Cedar Rapids   FAIR      61  61 100 SE6       30.10S
Des Moines     FAIR      70  65  84 SE12      30.07R
Kirksville     FAIR      67  65  93 E5        30.10S
Ottumwa        FAIR      66  64  93 SE8       30.09S
St Louis       FAIR      76  67  73 E9        30.06S
$$


CITY           SKY/WX    TMP DP  RH WIND       PRES   REMARKS
Terre Haute    FAIR      65  62  90 NE5       30.09S
Evansville     FAIR      71  68  90 NE5       30.05S
Indianapolis   FAIR      66  57  72 E10       30.11S
Lafayette      FAIR      63  60  90 E7        30.12R
Madison        FAIR      58  53  84 S5        30.15R
Milwaukee      FAIR      62  57  83 CALM      30.14S
$$






USA.gov is the U.S. government's official web portal to all federal, state and local government web resources and services.